owner,sensor,date,latitude,longitude,vertical_datum,wind_speed,wind_to_direction,wind_speed_of_gust,qcFlag 
LUMCON,ioos:station:LUMCON:102:1,2015-09-01T05:00:00Z,29.1870,-90.6093,0.0,9.1,202.0,-9999.0,'1111122,1111122,1111122' 
LUMCON,ioos:station:LUMCON:102:1,2015-09-01T05:15:00Z,29.1870,-90.6093,0.0,8.0,204.0,-9999.0,'1111122,1111122,1111122' 
LUMCON,ioos:station:LUMCON:102:1,2015-09-01T05:30:00Z,29.1870,-90.6093,0.0,7.7,202.0,-9999.0,'1111122,1111122,1111122' 
LUMCON,ioos:station:LUMCON:102:1,2015-09-01T05:45:00Z,29.1870,-90.6093,0.0,9.9,197.0,-9999.0,'1111122,1111122,1111122' 
LUMCON,ioos:station:LUMCON:102:1,2015-09-01T06:00:00Z,29.1870,-90.6093,0.0,7.6,211.0,-9999.0,'1111122,1111122,1111122' 
LUMCON,ioos:station:LUMCON:102:1,2015-09-01T06:15:00Z,29.1870,-90.6093,0.0,5.9,214.0,-9999.0,'1111122,1111122,1111122' 
LUMCON,ioos:station:LUMCON:102:1,2015-09-01T06:30:00Z,29.1870,-90.6093,0.0,5.7,199.0,-9999.0,'1111122,1111122,1111122' 
LUMCON,ioos:station:LUMCON:102:1,2015-09-01T06:45:00Z,29.1870,-90.6093,0.0,7.2,209.0,-9999.0,'1111122,1111122,1111122' 
LUMCON,ioos:station:LUMCON:102:1,2015-09-01T07:00:00Z,29.1870,-90.6093,0.0,6.1,217.0,-9999.0,'1111122,1111122,1111122' 
LUMCON,ioos:station:LUMCON:102:1,2015-09-01T07:15:00Z,29.1870,-90.6093,0.0,6.8,211.0,-9999.0,'1111122,1111122,1111122' 
LUMCON,ioos:station:LUMCON:102:1,2015-09-01T07:30:00Z,29.1870,-90.6093,0.0,5.1,220.0,-9999.0,'1111122,1111122,1111122' 
LUMCON,ioos:station:LUMCON:102:1,2015-09-01T07:45:00Z,29.1870,-90.6093,0.0,6.3,205.0,-9999.0,'1111122,1111122,1111122' 
LUMCON,ioos:station:LUMCON:102:1,2015-09-01T08:00:00Z,29.1870,-90.6093,0.0,6.6,237.0,-9999.0,'1111122,1111122,1111122' 
LUMCON,ioos:station:LUMCON:102:1,2015-09-01T08:15:00Z,29.1870,-90.6093,0.0,5.3,213.0,-9999.0,'1111122,1111122,1111122' 
LUMCON,ioos:station:LUMCON:102:1,2015-09-01T08:30:00Z,29.1870,-90.6093,0.0,3.8,212.0,-9999.0,'1111122,1111122,1111122' 
LUMCON,ioos:station:LUMCON:102:1,2015-09-01T08:45:00Z,29.1870,-90.6093,0.0,4.7,205.0,-9999.0,'1111122,1111122,1111122' 
LUMCON,ioos:station:LUMCON:102:1,2015-09-01T09:00:00Z,29.1870,-90.6093,0.0,5.4,204.0,-9999.0,'1111122,1111122,1111122' 
LUMCON,ioos:station:LUMCON:102:1,2015-09-01T09:15:00Z,29.1870,-90.6093,0.0,4.1,219.0,-9999.0,'1111122,1111122,1111122' 
LUMCON,ioos:station:LUMCON:102:1,2015-09-01T09:30:00Z,29.1870,-90.6093,0.0,5.3,163.0,-9999.0,'1111122,1111122,1111122' 
LUMCON,ioos:station:LUMCON:102:1,2015-09-01T09:45:00Z,29.1870,-90.6093,0.0,8.7,152.0,-9999.0,'1111122,1111122,1111122' 
LUMCON,ioos:station:LUMCON:102:1,2015-09-01T10:00:00Z,29.1870,-90.6093,0.0,7.8,138.0,-9999.0,'1111122,1111122,1111122' 
LUMCON,ioos:station:LUMCON:102:1,2015-09-01T10:15:00Z,29.1870,-90.6093,0.0,12.1,155.0,-9999.0,'1111122,1111122,1111122' 
LUMCON,ioos:station:LUMCON:102:1,2015-09-01T10:30:00Z,29.1870,-90.6093,0.0,11.6,147.0,-9999.0,'1111122,1111122,1111122' 
LUMCON,ioos:station:LUMCON:102:1,2015-09-01T10:45:00Z,29.1870,-90.6093,0.0,12.3,140.0,-9999.0,'1111122,1111122,1111122' 
LUMCON,ioos:station:LUMCON:102:1,2015-09-01T11:00:00Z,29.1870,-90.6093,0.0,12.0,152.0,-9999.0,'1111122,1111122,1111122' 
LUMCON,ioos:station:LUMCON:102:1,2015-09-01T11:15:00Z,29.1870,-90.6093,0.0,10.2,130.0,-9999.0,'1111122,1111122,1111122' 
LUMCON,ioos:station:LUMCON:102:1,2015-09-01T11:30:00Z,29.1870,-90.6093,0.0,6.8,150.0,-9999.0,'1111122,1111122,1111122' 
LUMCON,ioos:station:LUMCON:102:1,2015-09-01T11:45:00Z,29.1870,-90.6093,0.0,9.4,122.0,-9999.0,'1111122,1111122,1111122' 
LUMCON,ioos:station:LUMCON:102:1,2015-09-01T12:00:00Z,29.1870,-90.6093,0.0,7.3,120.0,-9999.0,'1111122,1111122,1111122' 
LUMCON,ioos:station:LUMCON:102:1,2015-09-01T12:15:00Z,29.1870,-90.6093,0.0,4.5,136.0,-9999.0,'1111122,1111122,1111122' 
LUMCON,ioos:station:LUMCON:102:1,2015-09-01T12:30:00Z,29.1870,-90.6093,0.0,5.6,110.0,-9999.0,'1111122,1111122,1111122' 
LUMCON,ioos:station:LUMCON:102:1,2015-09-01T12:45:00Z,29.1870,-90.6093,0.0,5.3,145.0,-9999.0,'1111122,1111122,1111122' 
LUMCON,ioos:station:LUMCON:102:1,2015-09-01T13:15:00Z,29.1870,-90.6093,0.0,7.5,112.0,-9999.0,'1111122,1111122,1111122' 
LUMCON,ioos:station:LUMCON:102:1,2015-09-01T13:30:00Z,29.1870,-90.6093,0.0,8.4,98.0,-9999.0,'1111122,1111122,1111122' 
LUMCON,ioos:station:LUMCON:102:1,2015-09-01T13:45:00Z,29.1870,-90.6093,0.0,9.0,119.0,-9999.0,'1111122,1111122,1111122' 
LUMCON,ioos:station:LUMCON:102:1,2015-09-01T14:00:00Z,29.1870,-90.6093,0.0,10.6,101.0,-9999.0,'1111122,1111122,1111122' 
LUMCON,ioos:station:LUMCON:102:1,2015-09-01T14:15:00Z,29.1870,-90.6093,0.0,10.1,110.0,-9999.0,'1111122,1111122,1111122' 
LUMCON,ioos:station:LUMCON:102:1,2015-09-01T14:30:00Z,29.1870,-90.6093,0.0,11.1,113.0,-9999.0,'1111122,1111122,1111122' 
LUMCON,ioos:station:LUMCON:102:1,2015-09-01T14:45:00Z,29.1870,-90.6093,0.0,8.7,123.0,-9999.0,'1111122,1111122,1111122' 
LUMCON,ioos:station:LUMCON:102:1,2015-09-01T15:00:00Z,29.1870,-90.6093,0.0,3.5,146.0,-9999.0,'1111122,1111122,1111122' 
LUMCON,ioos:station:LUMCON:102:1,2015-09-01T15:15:00Z,29.1870,-90.6093,0.0,6.6,108.0,-9999.0,'1111122,1111122,1111122' 
LUMCON,ioos:station:LUMCON:102:1,2015-09-01T15:45:00Z,29.1870,-90.6093,0.0,6.1,113.0,-9999.0,'1111122,1111122,1111122' 
LUMCON,ioos:station:LUMCON:102:1,2015-09-01T16:00:00Z,29.1870,-90.6093,0.0,7.0,139.0,-9999.0,'1111122,1111122,1111122' 
LUMCON,ioos:station:LUMCON:102:1,2015-09-01T16:15:00Z,29.1870,-90.6093,0.0,3.4,87.0,-9999.0,'1111122,1111122,1111122' 
LUMCON,ioos:station:LUMCON:102:1,2015-09-01T16:30:00Z,29.1870,-90.6093,0.0,6.9,126.0,-9999.0,'1111122,1111122,1111122' 
LUMCON,ioos:station:LUMCON:102:1,2015-09-01T16:45:00Z,29.1870,-90.6093,0.0,7.1,134.0,-9999.0,'1111122,1111122,1111122' 
LUMCON,ioos:station:LUMCON:102:1,2015-09-01T17:00:00Z,29.1870,-90.6093,0.0,9.2,134.0,-9999.0,'1111122,1111122,1111122' 
LUMCON,ioos:station:LUMCON:102:1,2015-09-01T17:15:00Z,29.1870,-90.6093,0.0,7.7,157.0,-9999.0,'1111122,1111122,1111122' 
LUMCON,ioos:station:LUMCON:102:1,2015-09-01T17:30:00Z,29.1870,-90.6093,0.0,7.7,171.0,-9999.0,'1111122,1111122,1111122' 
LUMCON,ioos:station:LUMCON:102:1,2015-09-01T17:45:00Z,29.1870,-90.6093,0.0,8.5,160.0,-9999.0,'1111122,1111122,1111122' 
LUMCON,ioos:station:LUMCON:102:1,2015-09-01T18:00:00Z,29.1870,-90.6093,0.0,8.4,164.0,-9999.0,'1111122,1111122,1111122' 
LUMCON,ioos:station:LUMCON:102:1,2015-09-01T18:15:00Z,29.1870,-90.6093,0.0,4.6,161.0,-9999.0,'1111122,1111122,1111122' 
LUMCON,ioos:station:LUMCON:102:1,2015-09-01T18:30:00Z,29.1870,-90.6093,0.0,7.6,172.0,-9999.0,'1111122,1111122,1111122' 
LUMCON,ioos:station:LUMCON:102:1,2015-09-01T18:45:00Z,29.1870,-90.6093,0.0,6.3,167.0,-9999.0,'1111122,1111122,1111122' 
LUMCON,ioos:station:LUMCON:102:1,2015-09-01T19:00:00Z,29.1870,-90.6093,0.0,5.1,162.0,-9999.0,'1111122,1111122,1111122' 
LUMCON,ioos:station:LUMCON:102:1,2015-09-01T19:15:00Z,29.1870,-90.6093,0.0,6.7,155.0,-9999.0,'1111122,1111122,1111122' 
LUMCON,ioos:station:LUMCON:102:1,2015-09-01T19:30:00Z,29.1870,-90.6093,0.0,5.7,206.0,-9999.0,'1111122,1111122,1111122' 
LUMCON,ioos:station:LUMCON:102:1,2015-09-01T19:45:00Z,29.1870,-90.6093,0.0,9.1,192.0,-9999.0,'1111122,1111122,1111122' 
LUMCON,ioos:station:LUMCON:102:1,2015-09-01T20:00:00Z,29.1870,-90.6093,0.0,11.0,196.0,-9999.0,'1111122,1111122,1111122' 
LUMCON,ioos:station:LUMCON:102:1,2015-09-01T20:15:00Z,29.1870,-90.6093,0.0,11.2,196.0,-9999.0,'1111122,1111122,1111122' 
LUMCON,ioos:station:LUMCON:102:1,2015-09-01T20:30:00Z,29.1870,-90.6093,0.0,9.5,199.0,-9999.0,'1111122,1111122,1111122' 
LUMCON,ioos:station:LUMCON:102:1,2015-09-01T20:45:00Z,29.1870,-90.6093,0.0,7.9,196.0,-9999.0,'1111122,1111122,1111122' 
LUMCON,ioos:station:LUMCON:102:1,2015-09-01T21:00:00Z,29.1870,-90.6093,0.0,8.9,176.0,-9999.0,'1111122,1111122,1111122' 
LUMCON,ioos:station:LUMCON:102:1,2015-09-01T21:15:00Z,29.1870,-90.6093,0.0,10.3,200.0,-9999.0,'1111122,1111122,1111122' 
LUMCON,ioos:station:LUMCON:102:1,2015-09-01T21:30:00Z,29.1870,-90.6093,0.0,8.7,186.0,-9999.0,'1111122,1111122,1111122' 
LUMCON,ioos:station:LUMCON:102:1,2015-09-01T21:45:00Z,29.1870,-90.6093,0.0,7.9,204.0,-9999.0,'1111122,1111122,1111122' 
LUMCON,ioos:station:LUMCON:102:1,2015-09-01T22:00:00Z,29.1870,-90.6093,0.0,8.1,191.0,-9999.0,'1111122,1111122,1111122' 
LUMCON,ioos:station:LUMCON:102:1,2015-09-01T22:15:00Z,29.1870,-90.6093,0.0,8.2,191.0,-9999.0,'1111122,1111122,1111122' 
LUMCON,ioos:station:LUMCON:102:1,2015-09-01T22:30:00Z,29.1870,-90.6093,0.0,8.6,203.0,-9999.0,'1111122,1111122,1111122' 
LUMCON,ioos:station:LUMCON:102:1,2015-09-01T22:45:00Z,29.1870,-90.6093,0.0,8.1,188.0,-9999.0,'1111122,1111122,1111122' 
LUMCON,ioos:station:LUMCON:102:1,2015-09-01T23:00:00Z,29.1870,-90.6093,0.0,9.5,178.0,-9999.0,'1111122,1111122,1111122' 
LUMCON,ioos:station:LUMCON:102:1,2015-09-01T23:15:00Z,29.1870,-90.6093,0.0,8.4,180.0,-9999.0,'1111122,1111122,1111122' 
LUMCON,ioos:station:LUMCON:102:1,2015-09-01T23:30:00Z,29.1870,-90.6093,0.0,8.5,185.0,-9999.0,'1111122,1111122,1111122' 
LUMCON,ioos:station:LUMCON:102:1,2015-09-01T23:45:00Z,29.1870,-90.6093,0.0,7.4,170.0,-9999.0,'1111122,1111122,1111122' 
LUMCON,ioos:station:LUMCON:102:1,2015-09-02T05:00:00Z,29.1870,-90.6093,0.0,6.7,236.0,-9999.0,'1111122,1111122,1111122' 
LUMCON,ioos:station:LUMCON:102:1,2015-09-02T05:15:00Z,29.1870,-90.6093,0.0,8.5,236.0,-9999.0,'1111122,1111122,1111122' 
LUMCON,ioos:station:LUMCON:102:1,2015-09-02T05:30:00Z,29.1870,-90.6093,0.0,5.9,245.0,-9999.0,'1111122,1111122,1111122' 
LUMCON,ioos:station:LUMCON:102:1,2015-09-02T05:45:00Z,29.1870,-90.6093,0.0,9.6,240.0,-9999.0,'1111122,1111122,1111122' 
LUMCON,ioos:station:LUMCON:102:1,2015-09-02T06:00:00Z,29.1870,-90.6093,0.0,8.5,243.0,-9999.0,'1111122,1111122,1111122' 
LUMCON,ioos:station:LUMCON:102:1,2015-09-02T06:15:00Z,29.1870,-90.6093,0.0,6.9,350.0,-9999.0,'1111122,1111122,1111122' 
LUMCON,ioos:station:LUMCON:102:1,2015-09-02T06:30:00Z,29.1870,-90.6093,0.0,5.1,181.0,-9999.0,'1111122,1111122,1111122' 
LUMCON,ioos:station:LUMCON:102:1,2015-09-02T06:45:00Z,29.1870,-90.6093,0.0,4.5,214.0,-9999.0,'1111122,1111122,1111122' 
LUMCON,ioos:station:LUMCON:102:1,2015-09-02T07:00:00Z,29.1870,-90.6093,0.0,5.3,220.0,-9999.0,'1111122,1111122,1111122' 
LUMCON,ioos:station:LUMCON:102:1,2015-09-02T07:15:00Z,29.1870,-90.6093,0.0,3.0,183.0,-9999.0,'1111122,1111122,1111122' 
LUMCON,ioos:station:LUMCON:102:1,2015-09-02T07:30:00Z,29.1870,-90.6093,0.0,5.3,214.0,-9999.0,'1111122,1111122,1111122' 
LUMCON,ioos:station:LUMCON:102:1,2015-09-02T07:45:00Z,29.1870,-90.6093,0.0,2.5,226.0,-9999.0,'1111122,1111122,1111122' 
LUMCON,ioos:station:LUMCON:102:1,2015-09-02T08:00:00Z,29.1870,-90.6093,0.0,3.9,255.0,-9999.0,'1111122,1111122,1111122' 
LUMCON,ioos:station:LUMCON:102:1,2015-09-02T08:15:00Z,29.1870,-90.6093,0.0,3.9,276.0,-9999.0,'1111122,1111122,1111122' 
LUMCON,ioos:station:LUMCON:102:1,2015-09-02T08:30:00Z,29.1870,-90.6093,0.0,7.4,286.0,-9999.0,'1111122,1111122,1111122' 
LUMCON,ioos:station:LUMCON:102:1,2015-09-02T08:45:00Z,29.1870,-90.6093,0.0,2.6,289.0,-9999.0,'1111122,1111122,1111122' 
LUMCON,ioos:station:LUMCON:102:1,2015-09-02T09:00:00Z,29.1870,-90.6093,0.0,2.5,342.0,-9999.0,'1111122,1111122,1111122' 
LUMCON,ioos:station:LUMCON:102:1,2015-09-02T09:15:00Z,29.1870,-90.6093,0.0,2.3,350.0,-9999.0,'1111122,1111122,1111122' 
LUMCON,ioos:station:LUMCON:102:1,2015-09-02T09:30:00Z,29.1870,-90.6093,0.0,1.8,325.0,-9999.0,'1111122,1111122,1111122' 
LUMCON,ioos:station:LUMCON:102:1,2015-09-02T09:45:00Z,29.1870,-90.6093,0.0,1.0,7.0,-9999.0,'1111122,1111122,1111122' 
LUMCON,ioos:station:LUMCON:102:1,2015-09-02T10:00:00Z,29.1870,-90.6093,0.0,2.1,8.0,-9999.0,'1111122,1111122,1111122' 
LUMCON,ioos:station:LUMCON:102:1,2015-09-02T10:15:00Z,29.1870,-90.6093,0.0,5.4,8.0,-9999.0,'1111122,1111122,1111122' 
LUMCON,ioos:station:LUMCON:102:1,2015-09-02T10:30:00Z,29.1870,-90.6093,0.0,3.6,60.0,-9999.0,'1111122,1111122,1111122' 
LUMCON,ioos:station:LUMCON:102:1,2015-09-02T10:45:00Z,29.1870,-90.6093,0.0,7.7,138.0,-9999.0,'1111122,1111122,1111122' 
LUMCON,ioos:station:LUMCON:102:1,2015-09-02T11:00:00Z,29.1870,-90.6093,0.0,9.8,144.0,-9999.0,'1111122,1111122,1111122' 
LUMCON,ioos:station:LUMCON:102:1,2015-09-02T11:15:00Z,29.1870,-90.6093,0.0,10.2,140.0,-9999.0,'1111122,1111122,1111122' 
LUMCON,ioos:station:LUMCON:102:1,2015-09-02T11:30:00Z,29.1870,-90.6093,0.0,12.7,117.0,-9999.0,'1111122,1111122,1111122' 
LUMCON,ioos:station:LUMCON:102:1,2015-09-02T11:45:00Z,29.1870,-90.6093,0.0,10.7,108.0,-9999.0,'1111122,1111122,1111122' 
LUMCON,ioos:station:LUMCON:102:1,2015-09-02T12:00:00Z,29.1870,-90.6093,0.0,10.9,116.0,-9999.0,'1111122,1111122,1111122' 
LUMCON,ioos:station:LUMCON:102:1,2015-09-02T12:15:00Z,29.1870,-90.6093,0.0,9.7,108.0,-9999.0,'1111122,1111122,1111122' 
LUMCON,ioos:station:LUMCON:102:1,2015-09-02T12:30:00Z,29.1870,-90.6093,0.0,10.4,98.0,-9999.0,'1111122,1111122,1111122' 
LUMCON,ioos:station:LUMCON:102:1,2015-09-02T12:45:00Z,29.1870,-90.6093,0.0,16.0,143.0,-9999.0,'1111122,1111122,1111122' 
LUMCON,ioos:station:LUMCON:102:1,2015-09-02T13:00:00Z,29.1870,-90.6093,0.0,11.6,132.0,-9999.0,'1111122,1111122,1111122' 
LUMCON,ioos:station:LUMCON:102:1,2015-09-02T13:15:00Z,29.1870,-90.6093,0.0,10.3,125.0,-9999.0,'1111122,1111122,1111122' 
LUMCON,ioos:station:LUMCON:102:1,2015-09-02T13:30:00Z,29.1870,-90.6093,0.0,10.5,147.0,-9999.0,'1111122,1111122,1111122' 
LUMCON,ioos:station:LUMCON:102:1,2015-09-02T13:45:00Z,29.1870,-90.6093,0.0,7.8,92.0,-9999.0,'1111122,1111122,1111122' 
LUMCON,ioos:station:LUMCON:102:1,2015-09-02T14:00:00Z,29.1870,-90.6093,0.0,6.0,90.0,-9999.0,'1111122,1111122,1111122' 
LUMCON,ioos:station:LUMCON:102:1,2015-09-02T14:15:00Z,29.1870,-90.6093,0.0,20.2,171.0,-9999.0,'1111122,1111122,1111122' 
LUMCON,ioos:station:LUMCON:102:1,2015-09-02T14:30:00Z,29.1870,-90.6093,0.0,20.0,145.0,-9999.0,'1111122,1111122,1111122' 
LUMCON,ioos:station:LUMCON:102:1,2015-09-02T14:45:00Z,29.1870,-90.6093,0.0,22.1,119.0,-9999.0,'1111122,1111122,1111122' 
LUMCON,ioos:station:LUMCON:102:1,2015-09-02T15:00:00Z,29.1870,-90.6093,0.0,15.5,113.0,-9999.0,'1111122,1111122,1111122' 
LUMCON,ioos:station:LUMCON:102:1,2015-09-02T15:15:00Z,29.1870,-90.6093,0.0,6.5,159.0,-9999.0,'1111122,1111122,1111122' 
LUMCON,ioos:station:LUMCON:102:1,2015-09-02T15:30:00Z,29.1870,-90.6093,0.0,10.4,155.0,-9999.0,'1111122,1111122,1111122' 
LUMCON,ioos:station:LUMCON:102:1,2015-09-02T15:45:00Z,29.1870,-90.6093,0.0,11.3,133.0,-9999.0,'1111122,1111122,1111122' 
LUMCON,ioos:station:LUMCON:102:1,2015-09-02T16:00:00Z,29.1870,-90.6093,0.0,9.9,98.0,-9999.0,'1111122,1111122,1111122' 
LUMCON,ioos:station:LUMCON:102:1,2015-09-02T16:15:00Z,29.1870,-90.6093,0.0,10.4,117.0,-9999.0,'1111122,1111122,1111122' 
LUMCON,ioos:station:LUMCON:102:1,2015-09-02T16:30:00Z,29.1870,-90.6093,0.0,15.1,121.0,-9999.0,'1111122,1111122,1111122' 
LUMCON,ioos:station:LUMCON:102:1,2015-09-02T16:45:00Z,29.1870,-90.6093,0.0,12.5,133.0,-9999.0,'1111122,1111122,1111122' 
LUMCON,ioos:station:LUMCON:102:1,2015-09-02T17:15:00Z,29.1870,-90.6093,0.0,8.2,153.0,-9999.0,'1111122,1111122,1111122' 
LUMCON,ioos:station:LUMCON:102:1,2015-09-02T17:30:00Z,29.1870,-90.6093,0.0,10.0,152.0,-9999.0,'1111122,1111122,1111122' 
LUMCON,ioos:station:LUMCON:102:1,2015-09-02T17:45:00Z,29.1870,-90.6093,0.0,9.5,152.0,-9999.0,'1111122,1111122,1111122' 
LUMCON,ioos:station:LUMCON:102:1,2015-09-02T18:00:00Z,29.1870,-90.6093,0.0,12.5,164.0,-9999.0,'1111122,1111122,1111122' 
LUMCON,ioos:station:LUMCON:102:1,2015-09-02T18:15:00Z,29.1870,-90.6093,0.0,13.1,169.0,-9999.0,'1111122,1111122,1111122' 
LUMCON,ioos:station:LUMCON:102:1,2015-09-02T18:30:00Z,29.1870,-90.6093,0.0,7.7,174.0,-9999.0,'1111122,1111122,1111122' 
LUMCON,ioos:station:LUMCON:102:1,2015-09-02T18:45:00Z,29.1870,-90.6093,0.0,7.2,183.0,-9999.0,'1111122,1111122,1111122' 
LUMCON,ioos:station:LUMCON:102:1,2015-09-02T19:00:00Z,29.1870,-90.6093,0.0,7.9,183.0,-9999.0,'1111122,1111122,1111122' 
LUMCON,ioos:station:LUMCON:102:1,2015-09-02T19:15:00Z,29.1870,-90.6093,0.0,5.6,174.0,-9999.0,'1111122,1111122,1111122' 
LUMCON,ioos:station:LUMCON:102:1,2015-09-02T19:30:00Z,29.1870,-90.6093,0.0,4.2,162.0,-9999.0,'1111122,1111122,1111122' 
LUMCON,ioos:station:LUMCON:102:1,2015-09-02T19:45:00Z,29.1870,-90.6093,0.0,8.2,171.0,-9999.0,'1111122,1111122,1111122' 
LUMCON,ioos:station:LUMCON:102:1,2015-09-02T20:00:00Z,29.1870,-90.6093,0.0,10.5,165.0,-9999.0,'1111122,1111122,1111122' 
LUMCON,ioos:station:LUMCON:102:1,2015-09-02T20:15:00Z,29.1870,-90.6093,0.0,10.4,132.0,-9999.0,'1111122,1111122,1111122' 
LUMCON,ioos:station:LUMCON:102:1,2015-09-02T20:30:00Z,29.1870,-90.6093,0.0,7.8,151.0,-9999.0,'1111122,1111122,1111122' 
LUMCON,ioos:station:LUMCON:102:1,2015-09-02T20:45:00Z,29.1870,-90.6093,0.0,12.2,142.0,-9999.0,'1111122,1111122,1111122' 
LUMCON,ioos:station:LUMCON:102:1,2015-09-02T21:15:00Z,29.1870,-90.6093,0.0,12.2,162.0,-9999.0,'1111122,1111122,1111122' 
LUMCON,ioos:station:LUMCON:102:1,2015-09-02T21:30:00Z,29.1870,-90.6093,0.0,13.3,169.0,-9999.0,'1111122,1111122,1111122' 
LUMCON,ioos:station:LUMCON:102:1,2015-09-02T21:45:00Z,29.1870,-90.6093,0.0,13.5,160.0,-9999.0,'1111122,1111122,1111122' 
LUMCON,ioos:station:LUMCON:102:1,2015-09-02T22:00:00Z,29.1870,-90.6093,0.0,8.2,148.0,-9999.0,'1111122,1111122,1111122' 
LUMCON,ioos:station:LUMCON:102:1,2015-09-02T22:15:00Z,29.1870,-90.6093,0.0,6.3,141.0,-9999.0,'1111122,1111122,1111122' 
LUMCON,ioos:station:LUMCON:102:1,2015-09-02T22:45:00Z,29.1870,-90.6093,0.0,7.8,151.0,-9999.0,'1111122,1111122,1111122' 
LUMCON,ioos:station:LUMCON:102:1,2015-09-02T23:00:00Z,29.1870,-90.6093,0.0,6.8,162.0,-9999.0,'1111122,1111122,1111122' 
LUMCON,ioos:station:LUMCON:102:1,2015-09-02T23:15:00Z,29.1870,-90.6093,0.0,5.1,180.0,-9999.0,'1111122,1111122,1111122' 
LUMCON,ioos:station:LUMCON:102:1,2015-09-02T23:30:00Z,29.1870,-90.6093,0.0,4.0,200.0,-9999.0,'1111122,1111122,1111122' 
LUMCON,ioos:station:LUMCON:102:1,2015-09-02T23:45:00Z,29.1870,-90.6093,0.0,5.1,212.0,-9999.0,'1111122,1111122,1111122' 
LUMCON,ioos:station:LUMCON:102:1,2015-09-03T05:00:00Z,29.1870,-90.6093,0.0,7.1,168.0,-9999.0,'1111122,1111122,1111122' 
LUMCON,ioos:station:LUMCON:102:1,2015-09-03T05:15:00Z,29.1870,-90.6093,0.0,7.0,182.0,-9999.0,'1111122,1111122,1111122' 
LUMCON,ioos:station:LUMCON:102:1,2015-09-03T05:30:00Z,29.1870,-90.6093,0.0,8.3,151.0,-9999.0,'1111122,1111122,1111122' 
LUMCON,ioos:station:LUMCON:102:1,2015-09-03T05:45:00Z,29.1870,-90.6093,0.0,8.7,161.0,-9999.0,'1111122,1111122,1111122' 
LUMCON,ioos:station:LUMCON:102:1,2015-09-03T06:00:00Z,29.1870,-90.6093,0.0,7.9,165.0,-9999.0,'1111122,1111122,1111122' 
LUMCON,ioos:station:LUMCON:102:1,2015-09-03T06:15:00Z,29.1870,-90.6093,0.0,9.4,160.0,-9999.0,'1111122,1111122,1111122' 
LUMCON,ioos:station:LUMCON:102:1,2015-09-03T06:30:00Z,29.1870,-90.6093,0.0,7.9,159.0,-9999.0,'1111122,1111122,1111122' 
LUMCON,ioos:station:LUMCON:102:1,2015-09-03T06:45:00Z,29.1870,-90.6093,0.0,6.9,152.0,-9999.0,'1111122,1111122,1111122' 
LUMCON,ioos:station:LUMCON:102:1,2015-09-03T07:00:00Z,29.1870,-90.6093,0.0,8.9,159.0,-9999.0,'1111122,1111122,1111122' 
LUMCON,ioos:station:LUMCON:102:1,2015-09-03T07:15:00Z,29.1870,-90.6093,0.0,8.5,149.0,-9999.0,'1111122,1111122,1111122' 
LUMCON,ioos:station:LUMCON:102:1,2015-09-03T07:30:00Z,29.1870,-90.6093,0.0,9.0,148.0,-9999.0,'1111122,1111122,1111122' 
LUMCON,ioos:station:LUMCON:102:1,2015-09-03T07:45:00Z,29.1870,-90.6093,0.0,9.7,161.0,-9999.0,'1111122,1111122,1111122' 
LUMCON,ioos:station:LUMCON:102:1,2015-09-03T08:00:00Z,29.1870,-90.6093,0.0,8.9,161.0,-9999.0,'1111122,1111122,1111122' 
LUMCON,ioos:station:LUMCON:102:1,2015-09-03T08:15:00Z,29.1870,-90.6093,0.0,9.1,163.0,-9999.0,'1111122,1111122,1111122' 
LUMCON,ioos:station:LUMCON:102:1,2015-09-03T08:30:00Z,29.1870,-90.6093,0.0,9.4,199.0,-9999.0,'1111122,1111122,1111122' 
LUMCON,ioos:station:LUMCON:102:1,2015-09-03T08:45:00Z,29.1870,-90.6093,0.0,16.1,223.0,-9999.0,'1111122,1111122,1111122' 
LUMCON,ioos:station:LUMCON:102:1,2015-09-03T09:00:00Z,29.1870,-90.6093,0.0,14.6,240.0,-9999.0,'1111122,1111122,1111122' 
LUMCON,ioos:station:LUMCON:102:1,2015-09-03T09:15:00Z,29.1870,-90.6093,0.0,9.3,238.0,-9999.0,'1111122,1111122,1111122' 
LUMCON,ioos:station:LUMCON:102:1,2015-09-03T09:30:00Z,29.1870,-90.6093,0.0,4.2,217.0,-9999.0,'1111122,1111122,1111122' 
LUMCON,ioos:station:LUMCON:102:1,2015-09-03T09:45:00Z,29.1870,-90.6093,0.0,5.1,198.0,-9999.0,'1111122,1111122,1111122' 
LUMCON,ioos:station:LUMCON:102:1,2015-09-03T10:00:00Z,29.1870,-90.6093,0.0,6.3,224.0,-9999.0,'1111122,1111122,1111122' 
LUMCON,ioos:station:LUMCON:102:1,2015-09-03T10:15:00Z,29.1870,-90.6093,0.0,6.0,205.0,-9999.0,'1111122,1111122,1111122' 
LUMCON,ioos:station:LUMCON:102:1,2015-09-03T10:30:00Z,29.1870,-90.6093,0.0,13.3,216.0,-9999.0,'1111122,1111122,1111122' 
LUMCON,ioos:station:LUMCON:102:1,2015-09-03T10:45:00Z,29.1870,-90.6093,0.0,12.3,215.0,-9999.0,'1111122,1111122,1111122' 
LUMCON,ioos:station:LUMCON:102:1,2015-09-03T11:00:00Z,29.1870,-90.6093,0.0,11.8,214.0,-9999.0,'1111122,1111122,1111122' 
LUMCON,ioos:station:LUMCON:102:1,2015-09-03T11:15:00Z,29.1870,-90.6093,0.0,8.9,220.0,-9999.0,'1111122,1111122,1111122' 
LUMCON,ioos:station:LUMCON:102:1,2015-09-03T11:30:00Z,29.1870,-90.6093,0.0,9.9,249.0,-9999.0,'1111122,1111122,1111122' 
LUMCON,ioos:station:LUMCON:102:1,2015-09-03T11:45:00Z,29.1870,-90.6093,0.0,13.4,227.0,-9999.0,'1111122,1111122,1111122' 
LUMCON,ioos:station:LUMCON:102:1,2015-09-03T12:00:00Z,29.1870,-90.6093,0.0,11.0,220.0,-9999.0,'1111122,1111122,1111122' 
LUMCON,ioos:station:LUMCON:102:1,2015-09-03T12:15:00Z,29.1870,-90.6093,0.0,6.7,234.0,-9999.0,'1111122,1111122,1111122' 
LUMCON,ioos:station:LUMCON:102:1,2015-09-03T12:30:00Z,29.1870,-90.6093,0.0,7.9,180.0,-9999.0,'1111122,1111122,1111122' 
LUMCON,ioos:station:LUMCON:102:1,2015-09-03T12:45:00Z,29.1870,-90.6093,0.0,7.5,116.0,-9999.0,'1111122,1111122,1111122' 
LUMCON,ioos:station:LUMCON:102:1,2015-09-03T13:00:00Z,29.1870,-90.6093,0.0,8.3,209.0,-9999.0,'1111122,1111122,1111122' 
LUMCON,ioos:station:LUMCON:102:1,2015-09-03T13:15:00Z,29.1870,-90.6093,0.0,8.4,206.0,-9999.0,'1111122,1111122,1111122' 
LUMCON,ioos:station:LUMCON:102:1,2015-09-03T13:30:00Z,29.1870,-90.6093,0.0,10.9,213.0,-9999.0,'1111122,1111122,1111122' 
LUMCON,ioos:station:LUMCON:102:1,2015-09-03T13:45:00Z,29.1870,-90.6093,0.0,16.7,217.0,-9999.0,'1111122,1111122,1111122' 
LUMCON,ioos:station:LUMCON:102:1,2015-09-03T14:00:00Z,29.1870,-90.6093,0.0,15.6,227.0,-9999.0,'1111122,1111122,1111122' 
LUMCON,ioos:station:LUMCON:102:1,2015-09-03T14:15:00Z,29.1870,-90.6093,0.0,18.4,224.0,-9999.0,'1111122,1111122,1111122' 
LUMCON,ioos:station:LUMCON:102:1,2015-09-03T14:30:00Z,29.1870,-90.6093,0.0,19.2,220.0,-9999.0,'1111122,1111122,1111122' 
LUMCON,ioos:station:LUMCON:102:1,2015-09-03T14:45:00Z,29.1870,-90.6093,0.0,20.5,236.0,-9999.0,'1111122,1111122,1111122' 
LUMCON,ioos:station:LUMCON:102:1,2015-09-03T15:00:00Z,29.1870,-90.6093,0.0,16.2,263.0,-9999.0,'1111122,1111122,1111122' 
LUMCON,ioos:station:LUMCON:102:1,2015-09-03T15:15:00Z,29.1870,-90.6093,0.0,17.0,257.0,-9999.0,'1111122,1111122,1111122' 
LUMCON,ioos:station:LUMCON:102:1,2015-09-03T15:30:00Z,29.1870,-90.6093,0.0,14.4,266.0,-9999.0,'1111122,1111122,1111122' 
LUMCON,ioos:station:LUMCON:102:1,2015-09-03T15:45:00Z,29.1870,-90.6093,0.0,18.0,255.0,-9999.0,'1111122,1111122,1111122' 
LUMCON,ioos:station:LUMCON:102:1,2015-09-03T16:00:00Z,29.1870,-90.6093,0.0,15.7,264.0,-9999.0,'1111122,1111122,1111122' 
LUMCON,ioos:station:LUMCON:102:1,2015-09-03T16:15:00Z,29.1870,-90.6093,0.0,18.0,259.0,-9999.0,'1111122,1111122,1111122' 
LUMCON,ioos:station:LUMCON:102:1,2015-09-03T16:30:00Z,29.1870,-90.6093,0.0,19.5,256.0,-9999.0,'1111122,1111122,1111122' 
LUMCON,ioos:station:LUMCON:102:1,2015-09-03T16:45:00Z,29.1870,-90.6093,0.0,17.7,251.0,-9999.0,'1111122,1111122,1111122' 
LUMCON,ioos:station:LUMCON:102:1,2015-09-03T17:00:00Z,29.1870,-90.6093,0.0,17.7,248.0,-9999.0,'1111122,1111122,1111122' 
LUMCON,ioos:station:LUMCON:102:1,2015-09-03T17:15:00Z,29.1870,-90.6093,0.0,15.3,260.0,-9999.0,'1111122,1111122,1111122' 
LUMCON,ioos:station:LUMCON:102:1,2015-09-03T17:30:00Z,29.1870,-90.6093,0.0,14.9,250.0,-9999.0,'1111122,1111122,1111122' 